Tracking 29892 objects as of 21-Nov-2024
HD Live streaming from Space Station
objects crossing your sky now

STARLINK-30870

Track STARLINK-30870 now!
10-day predictions
STARLINK-30870 is classified as:


NORAD ID: 58369
Int'l Code: 2023-177U
Perigee: 565.9 km
Apogee: 566.4 km
Inclination: 43.0 °
Period: 95.8 minutes
Semi major axis: 6937 km
RCS: Unknown
Launch date: November 18, 2023
Source: United States (US)
Launch site: AIR FORCE EASTERN TEST RANGE (AFETR)
Your satellite tracking list
Your tracking list is empty




NASA's NSSDC Master Catalog

Two Line Element Set (TLE):
1 58369U 23177U   24325.62242365  .00004522  00000-0  34951-3 0  9995
2 58369  43.0033  47.5471 0000340 288.4386  71.6419 15.02547143 56900
Source of the keplerian elements: AFSPC